,,PA_Meas_PMT16A,,PR_Meas_QMR101_102,,RH_Meas_QMH101,,SR_Meas_QMS101,,TA_Meas_QMH101,,GenWind,,GenWind,
time,status,PA,status,PR,status,RH,status,SR,status,TA,status,DirAvg,status,SpdAvg,
2013-03-03, 05:57:04,VALID,917.668,VALID,0,VALID,96.1923,VALID,0,VALID,19.2543,VALID,97,VALID,0,
2013-03-03, 05:58:04,VALID,917.685,VALID,0,VALID,96.2609,VALID,0,VALID,19.2948,VALID,97,VALID,0,
2013-03-03, 05:59:04,VALID,917.684,VALID,0,VALID,96.238,VALID,0,VALID,19.2738,VALID,97,VALID,0,
2013-03-03, 06:00:04,VALID,917.698,VALID,0,VALID,96.2228,VALID,0,VALID,19.2948,VALID,97,VALID,0,
2013-03-03, 06:01:04,VALID,917.696,VALID,0,VALID,96.177,VALID,0,VALID,19.2948,VALID,97,VALID,0,
2013-03-03, 06:02:04,VALID,917.688,VALID,0,VALID,96.1236,VALID,0,VALID,19.2753,VALID,97,VALID,0,
2013-03-03, 06:03:04,VALID,917.704,VALID,0,VALID,96.1465,VALID,0,VALID,19.2753,VALID,153,VALID,0,
2013-03-03, 06:04:04,VALID,917.72,VALID,0,VALID,96.1618,VALID,0,VALID,19.2558,VALID,153,VALID,0,
2013-03-03, 06:05:04,VALID,917.759,VALID,0,VALID,96.0169,VALID,0,VALID,19.1973,VALID,153,VALID,0,
2013-03-03, 06:06:04,VALID,917.752,VALID,0,VALID,96.055,VALID,0,VALID,19.1973,VALID,153,VALID,0,
2013-03-03, 06:07:04,VALID,917.767,VALID,0,VALID,96.116,VALID,0,VALID,19.1763,VALID,153,VALID,0,
2013-03-03, 06:08:04,VALID,917.76,VALID,0,VALID,96.1465,VALID,0.107441,VALID,19.1973,VALID,153,VALID,0,
2013-03-03, 06:09:04,VALID,917.754,VALID,0,VALID,96.1923,VALID,0,VALID,19.2168,VALID,153,VALID,0,
2013-03-03, 06:10:04,VALID,917.724,VALID,0,VALID,96.2228,VALID,0.107441,VALID,19.2168,VALID,153,VALID,0,
2013-03-03, 06:11:04,VALID,917.706,VALID,0,VALID,96.2151,VALID,0,VALID,19.1973,VALID,153,VALID,0,
2013-03-03, 06:12:04,VALID,917.724,VALID,0,VALID,96.2228,VALID,0,VALID,19.1778,VALID,153,VALID,0,
2013-03-03, 06:13:04,VALID,917.739,VALID,0,VALID,96.2304,VALID,0,VALID,19.1388,VALID,153,VALID,0,
2013-03-03, 06:14:04,VALID,917.725,VALID,0,VALID,96.2685,VALID,0,VALID,19.1193,VALID,153,VALID,0,
2013-03-03, 06:15:04,VALID,917.73,VALID,0,VALID,96.3066,VALID,0.107441,VALID,19.1193,VALID,153,VALID,0,
2013-03-03, 06:16:04,VALID,917.733,VALID,0,VALID,96.3219,VALID,0.107441,VALID,19.1193,VALID,153,VALID,0,
2013-03-03, 06:17:04,VALID,917.732,VALID,0,VALID,96.3752,VALID,0.107441,VALID,19.1178,VALID,152,VALID,0,
2013-03-03, 06:18:04,VALID,917.743,VALID,0,VALID,96.421,VALID,0.214882,VALID,19.1373,VALID,152,VALID,0,
2013-03-03, 06:19:04,VALID,917.727,VALID,0,VALID,96.4743,VALID,0.322323,VALID,19.1583,VALID,142,VALID,0,
2013-03-03, 06:20:04,VALID,917.704,VALID,0,VALID,96.4972,VALID,0.322323,VALID,19.1193,VALID,136,VALID,0,
2013-03-03, 06:21:04,VALID,917.682,VALID,0,VALID,96.5201,VALID,0.322323,VALID,19.1193,VALID,134,VALID,0,
2013-03-03, 06:22:04,VALID,917.72,VALID,0,VALID,96.4819,VALID,0.429765,VALID,19.0203,VALID,107,VALID,0,
2013-03-03, 06:23:04,VALID,917.719,VALID,0,VALID,96.4667,VALID,0.537206,VALID,18.9814,VALID,113,VALID,0,
2013-03-03, 06:24:04,VALID,917.692,VALID,0,VALID,96.5124,VALID,0.537206,VALID,19.0023,VALID,123,VALID,0,
2013-03-03, 06:25:04,VALID,917.717,VALID,0,VALID,96.5582,VALID,0.752088,VALID,18.9619,VALID,124,VALID,0,
2013-03-03, 06:26:04,VALID,917.729,VALID,0,VALID,96.5963,VALID,0.859529,VALID,18.9828,VALID,154,VALID,0,
2013-03-03, 06:27:04,VALID,917.722,VALID,0,VALID,96.6039,VALID,0.96697,VALID,18.9633,VALID,137,VALID,0,
2013-03-03, 06:28:04,VALID,917.701,VALID,0,VALID,96.6344,VALID,0.96697,VALID,18.9229,VALID,140,VALID,0,
2013-03-03, 06:29:04,VALID,917.693,VALID,0,VALID,96.642,VALID,1.07441,VALID,18.9828,VALID,143,VALID,0,
2013-03-03, 06:30:04,VALID,917.705,VALID,0,VALID,96.703,VALID,1.28929,VALID,18.9814,VALID,141,VALID,0,
2013-03-03, 06:31:04,VALID,917.682,VALID,0,VALID,96.7564,VALID,1.71906,VALID,19.0008,VALID,136,VALID,0,
2013-03-03, 06:32:04,VALID,917.679,VALID,0,VALID,96.7869,VALID,2.36371,VALID,19.0218,VALID,134,VALID,0,
2013-03-03, 06:33:04,VALID,917.66,VALID,0,VALID,96.7945,VALID,3.00835,VALID,19.0203,VALID,113,VALID,0,
2013-03-03, 06:34:04,VALID,917.661,VALID,0,VALID,96.8021,VALID,3.54556,VALID,19.0413,VALID,115,VALID,0,
2013-03-03, 06:35:04,VALID,917.704,VALID,0,VALID,96.8403,VALID,4.19021,VALID,19.0008,VALID,114,VALID,0,
2013-03-03, 06:36:04,VALID,917.729,VALID,0,VALID,96.8479,VALID,5.04973,VALID,19.0218,VALID,127,VALID,0,
2013-03-03, 06:37:04,VALID,917.736,VALID,0,VALID,96.8403,VALID,5.58694,VALID,19.0008,VALID,131,VALID,0,
2013-03-03, 06:38:04,VALID,917.775,VALID,0,VALID,96.8707,VALID,6.12415,VALID,19.0008,VALID,134,VALID,0,
2013-03-03, 06:39:04,VALID,917.76,VALID,0,VALID,96.8784,VALID,7.09112,VALID,19.0413,VALID,139,VALID,0,
2013-03-03, 06:40:04,VALID,917.712,VALID,0,VALID,96.9241,VALID,7.62832,VALID,19.0998,VALID,127,VALID,0,
2013-03-03, 06:41:04,VALID,917.719,VALID,0,VALID,96.9241,VALID,8.70273,VALID,19.0803,VALID,110,VALID,0,
2013-03-03, 06:42:04,VALID,917.713,VALID,0,VALID,96.9317,VALID,9.56226,VALID,19.0593,VALID,108,VALID,0,
2013-03-03, 06:43:04,VALID,917.711,VALID,0,VALID,96.9317,VALID,10.6367,VALID,19.0788,VALID,109,VALID,0,
2013-03-03, 06:44:04,VALID,917.725,VALID,0,VALID,96.9546,VALID,11.7111,VALID,19.0788,VALID,109,VALID,0,
2013-03-03, 06:45:04,VALID,917.752,VALID,0,VALID,96.9851,VALID,12.7855,VALID,19.0983,VALID,112,VALID,0,
2013-03-03, 06:46:04,VALID,917.806,VALID,0,VALID,96.9851,VALID,13.9674,VALID,19.1178,VALID,124,VALID,0,
2013-03-03, 06:47:04,VALID,917.825,VALID,0,VALID,96.9851,VALID,15.1492,VALID,19.1178,VALID,121,VALID,0,
2013-03-03, 06:48:04,VALID,917.848,VALID,0,VALID,97.0156,VALID,16.3311,VALID,19.1373,VALID,121,VALID,0,
2013-03-03, 06:49:04,VALID,917.841,VALID,0,VALID,97.008,VALID,17.4055,VALID,19.1178,VALID,117,VALID,0,
2013-03-03, 06:50:04,VALID,917.863,VALID,0,VALID,97.0385,VALID,18.5873,VALID,19.1178,VALID,117,VALID,0,
2013-03-03, 06:51:04,VALID,917.897,VALID,0,VALID,97.008,VALID,19.7692,VALID,19.0983,VALID,100,VALID,0,
2013-03-03, 06:52:04,VALID,917.923,VALID,0,VALID,97.0461,VALID,20.7361,VALID,19.1193,VALID,103,VALID,0,
2013-03-03, 06:53:04,VALID,917.95,VALID,0,VALID,97.0537,VALID,22.2403,VALID,19.0998,VALID,91,VALID,0,
2013-03-03, 06:54:04,VALID,917.936,VALID,0,VALID,97.0385,VALID,23.2073,VALID,19.0788,VALID,103,VALID,0,
2013-03-03, 06:55:04,VALID,917.944,VALID,0,VALID,97.0613,VALID,24.604,VALID,19.0788,VALID,109,VALID,0,
2013-03-03, 06:56:04,VALID,917.963,VALID,0,VALID,97.0613,VALID,25.8933,VALID,19.0983,VALID,115,VALID,0,
2013-03-03, 06:57:04,VALID,917.995,VALID,0,VALID,97.0842,VALID,27.1826,VALID,19.0983,VALID,123,VALID,0,
2013-03-03, 06:58:04,VALID,918.035,VALID,0,VALID,97.0918,VALID,28.5793,VALID,19.0983,VALID,132,VALID,0,
2013-03-03, 06:59:04,VALID,918.022,VALID,0,VALID,97.0994,VALID,29.8686,VALID,19.1178,VALID,125,VALID,0,
2013-03-03, 07:00:04,VALID,918.04,VALID,0,VALID,97.1147,VALID,31.1579,VALID,19.1373,VALID,128,VALID,0,
2013-03-03, 07:01:04,VALID,918.038,VALID,0,VALID,97.1299,VALID,32.7696,VALID,19.1763,VALID,123,VALID,0,
2013-03-03, 07:02:04,VALID,918.062,VALID,0,VALID,97.1223,VALID,34.3812,VALID,19.1763,VALID,123,VALID,0,
2013-03-03, 07:03:04,VALID,918.075,VALID,0,VALID,97.1299,VALID,35.8853,VALID,19.2153,VALID,132,VALID,0,
2013-03-03, 07:04:04,VALID,918.093,VALID,0,VALID,97.1452,VALID,37.497,VALID,19.1749,VALID,124,VALID,0,
2013-03-03, 07:05:04,VALID,918.136,VALID,0,VALID,97.1528,VALID,38.8937,VALID,19.2348,VALID,131,VALID,0,
2013-03-03, 07:06:04,VALID,918.127,VALID,0,VALID,97.1299,VALID,40.6128,VALID,19.2543,VALID,143,VALID,0,
2013-03-03, 07:07:04,VALID,918.185,VALID,0,VALID,97.1528,VALID,42.2244,VALID,19.2738,VALID,143,VALID,0,
2013-03-03, 07:08:04,VALID,918.164,VALID,0,VALID,97.1604,VALID,43.7285,VALID,19.3128,VALID,143,VALID,0,
2013-03-03, 07:09:04,VALID,918.167,VALID,0,VALID,97.1681,VALID,45.3402,VALID,19.3518,VALID,143,VALID,0,
2013-03-03, 07:10:04,VALID,918.139,VALID,0,VALID,97.1833,VALID,46.7369,VALID,19.3518,VALID,129,VALID,0,
2013-03-03, 07:11:04,VALID,918.104,VALID,0,VALID,97.1604,VALID,48.2411,VALID,19.3128,VALID,128,VALID,0,
2013-03-03, 07:12:04,VALID,918.14,VALID,0,VALID,97.1452,VALID,49.4229,VALID,19.2948,VALID,128,VALID,0,
2013-03-03, 07:13:04,VALID,918.163,VALID,0,VALID,97.1528,VALID,50.8197,VALID,19.2948,VALID,127,VALID,0,
2013-03-03, 07:14:04,VALID,918.18,VALID,0,VALID,97.1757,VALID,52.0015,VALID,19.3533,VALID,120,VALID,0,
2013-03-03, 07:15:04,VALID,918.2,VALID,0,VALID,97.1909,VALID,53.1834,VALID,19.3728,VALID,120,VALID,0,
2013-03-03, 07:16:04,VALID,918.229,VALID,0,VALID,97.1757,VALID,54.3652,VALID,19.3728,VALID,135,VALID,0,
2013-03-03, 07:17:04,VALID,918.233,VALID,0,VALID,97.1909,VALID,55.4396,VALID,19.3923,VALID,123,VALID,0,
2013-03-03, 07:18:04,VALID,918.266,VALID,0,VALID,97.1757,VALID,56.514,VALID,19.4313,VALID,133,VALID,0,
2013-03-03, 07:19:04,VALID,918.266,VALID,0,VALID,97.1757,VALID,57.481,VALID,19.4508,VALID,111,VALID,0,
2013-03-03, 07:20:04,VALID,918.297,VALID,0,VALID,97.1757,VALID,58.5554,VALID,19.4898,VALID,133,VALID,0,
2013-03-03, 07:21:04,VALID,918.293,VALID,0,VALID,97.1757,VALID,59.5224,VALID,19.5093,VALID,133,VALID,0,
2013-03-03, 07:22:04,VALID,918.311,VALID,0,VALID,97.1909,VALID,60.4894,VALID,19.5483,VALID,134,VALID,0,
2013-03-03, 07:23:04,VALID,918.379,VALID,0,VALID,97.1909,VALID,61.4563,VALID,19.5678,VALID,140,VALID,0,
2013-03-03, 07:24:04,VALID,918.392,VALID,0,VALID,97.1909,VALID,62.6382,VALID,19.5873,VALID,147,VALID,0,
2013-03-03, 07:25:04,VALID,918.404,VALID,0,VALID,97.1757,VALID,63.82,VALID,19.5678,VALID,141,VALID,0,
2013-03-03, 07:26:04,VALID,918.463,VALID,0,VALID,97.1757,VALID,64.8945,VALID,19.6068,VALID,147,VALID,0,
2013-03-03, 07:27:04,VALID,918.483,VALID,0,VALID,97.1681,VALID,66.1837,VALID,19.6263,VALID,147,VALID,0,
2013-03-03, 07:28:04,VALID,918.496,VALID,0,VALID,97.1757,VALID,67.3656,VALID,19.6653,VALID,147,VALID,0,
2013-03-03, 07:29:04,VALID,918.497,VALID,0,VALID,97.1681,VALID,68.7623,VALID,19.6848,VALID,147,VALID,0,
2013-03-03, 07:30:04,VALID,918.522,VALID,0,VALID,97.1681,VALID,70.1591,VALID,19.6848,VALID,147,VALID,0,
2013-03-03, 07:31:04,VALID,918.486,VALID,0,VALID,97.1833,VALID,71.5558,VALID,19.6848,VALID,147,VALID,0,
2013-03-03, 07:32:04,VALID,918.506,VALID,0,VALID,97.1909,VALID,73.06,VALID,19.6848,VALID,135,VALID,0,
2013-03-03, 07:33:04,VALID,918.486,VALID,0,VALID,97.1757,VALID,74.6716,VALID,19.6653,VALID,135,VALID,0,
2013-03-03, 07:34:04,VALID,918.499,VALID,0,VALID,97.1528,VALID,76.1758,VALID,19.7043,VALID,136,VALID,0,
2013-03-03, 07:35:04,VALID,918.493,VALID,0,VALID,97.1604,VALID,77.68,VALID,19.7238,VALID,135,VALID,0,
2013-03-03, 07:36:04,VALID,918.535,VALID,0,VALID,97.1604,VALID,79.2916,VALID,19.7628,VALID,135,VALID,0,
2013-03-03, 07:37:04,VALID,918.527,VALID,0,VALID,97.1757,VALID,80.9032,VALID,19.7823,VALID,141,VALID,0,
2013-03-03, 07:38:04,VALID,918.549,VALID,0,VALID,97.1604,VALID,82.5148,VALID,19.8018,VALID,145,VALID,0,
2013-03-03, 07:39:04,VALID,918.55,VALID,0,VALID,97.1452,VALID,84.2339,VALID,19.7823,VALID,145,VALID,0,
2013-03-03, 07:40:04,VALID,918.564,VALID,0,VALID,97.1528,VALID,86.1678,VALID,19.7823,VALID,146,VALID,0,
2013-03-03, 07:41:04,VALID,918.58,VALID,0,VALID,97.1528,VALID,87.8869,VALID,19.7628,VALID,144,VALID,0,
2013-03-03, 07:42:04,VALID,918.567,VALID,0,VALID,97.1376,VALID,89.8208,VALID,19.7628,VALID,134,VALID,0,
2013-03-03, 07:43:04,VALID,918.586,VALID,0,VALID,97.1299,VALID,91.6473,VALID,19.7823,VALID,134,VALID,0,
2013-03-03, 07:44:04,VALID,918.601,VALID,0,VALID,97.1223,VALID,93.6887,VALID,19.8018,VALID,134,VALID,0,
2013-03-03, 07:45:04,VALID,918.649,VALID,0,VALID,97.1223,VALID,95.8375,VALID,19.8603,VALID,134,VALID,0,
2013-03-03, 07:46:04,VALID,918.683,VALID,0,VALID,97.0918,VALID,97.8789,VALID,19.8798,VALID,134,VALID,0,
2013-03-03, 07:47:04,VALID,918.725,VALID,0,VALID,97.1147,VALID,100.243,VALID,19.9188,VALID,134,VALID,0,
2013-03-03, 07:48:04,VALID,918.734,VALID,0,VALID,97.1071,VALID,102.714,VALID,19.9578,VALID,134,VALID,0,
2013-03-03, 07:49:04,VALID,918.761,VALID,0,VALID,97.0994,VALID,105.292,VALID,19.9773,VALID,134,VALID,0,
2013-03-03, 07:50:04,VALID,918.775,VALID,0,VALID,97.069,VALID,108.086,VALID,19.9773,VALID,134,VALID,0,
2013-03-03, 07:51:04,VALID,918.804,VALID,0,VALID,97.0842,VALID,110.772,VALID,19.9773,VALID,122,VALID,0,
2013-03-03, 07:52:04,VALID,918.827,VALID,0,VALID,97.0461,VALID,113.78,VALID,20.0163,VALID,98,VALID,0,
2013-03-03, 07:53:04,VALID,918.828,VALID,0,VALID,97.0461,VALID,116.789,VALID,20.0148,VALID,98,VALID,0,
2013-03-03, 07:54:04,VALID,918.839,VALID,0,VALID,97.0308,VALID,119.904,VALID,20.0553,VALID,98,VALID,0,
2013-03-03, 07:55:04,VALID,918.852,VALID,0,VALID,97.0003,VALID,123.235,VALID,20.0749,VALID,111,VALID,0,
2013-03-03, 07:56:04,VALID,918.849,VALID,0,VALID,96.9851,VALID,126.566,VALID,20.0944,VALID,111,VALID,0,
2013-03-03, 07:57:04,VALID,918.858,VALID,0,VALID,96.9698,VALID,129.896,VALID,20.1724,VALID,111,VALID,0,
2013-03-03, 07:58:04,VALID,918.873,VALID,0,VALID,96.9317,VALID,133.012,VALID,20.0928,VALID,111,VALID,0,
2013-03-03, 07:59:04,VALID,918.863,VALID,0,VALID,96.886,VALID,136.128,VALID,20.0733,VALID,124,VALID,0,
2013-03-03, 08:00:04,VALID,918.878,VALID,0,VALID,96.825,VALID,139.029,VALID,20.1334,VALID,125,VALID,0,
2013-03-03, 08:01:04,VALID,918.902,VALID,0,VALID,96.8021,VALID,141.822,VALID,20.1334,VALID,158,VALID,0,
2013-03-03, 08:02:04,VALID,918.892,VALID,0,VALID,96.7564,VALID,144.293,VALID,20.1724,VALID,152,VALID,0,
2013-03-03, 08:03:04,VALID,918.887,VALID,0,VALID,96.7107,VALID,146.979,VALID,20.2309,VALID,150,VALID,0,
2013-03-03, 08:04:04,VALID,918.892,VALID,0,VALID,96.6725,VALID,149.451,VALID,20.2114,VALID,130,VALID,0,
2013-03-03, 08:05:04,VALID,918.914,VALID,0,VALID,96.5811,VALID,151.707,VALID,20.2309,VALID,125,VALID,0,
2013-03-03, 08:06:04,VALID,918.943,VALID,0,VALID,96.4819,VALID,154.071,VALID,20.2309,VALID,128,VALID,0,
2013-03-03, 08:07:04,VALID,918.944,VALID,0,VALID,96.3752,VALID,156.219,VALID,20.2293,VALID,152,VALID,0,
2013-03-03, 08:08:04,VALID,918.974,VALID,0,VALID,96.3752,VALID,158.476,VALID,20.3089,VALID,138,VALID,0,
2013-03-03, 08:09:04,VALID,918.989,VALID,0,VALID,96.3447,VALID,160.732,VALID,20.3464,VALID,137,VALID,0,
2013-03-03, 08:10:04,VALID,918.982,VALID,0,VALID,96.3219,VALID,162.988,VALID,20.4244,VALID,137,VALID,0,
2013-03-03, 08:11:04,VALID,918.972,VALID,0,VALID,96.2914,VALID,165.244,VALID,20.4829,VALID,180,VALID,0,
2013-03-03, 08:12:04,VALID,918.988,VALID,0,VALID,96.1923,VALID,167.823,VALID,20.5024,VALID,165,VALID,0,
2013-03-03, 08:13:04,VALID,918.992,VALID,0,VALID,96.0245,VALID,170.294,VALID,20.5414,VALID,141,VALID,0,
2013-03-03, 08:14:04,VALID,919.021,VALID,0,VALID,95.6815,VALID,172.765,VALID,20.5609,VALID,161,VALID,0,
2013-03-03, 08:15:04,VALID,918.988,VALID,0,VALID,95.6357,VALID,175.451,VALID,20.639,VALID,142,VALID,0,
2013-03-03, 08:16:04,VALID,918.995,VALID,0,VALID,95.3689,VALID,177.923,VALID,20.678,VALID,166,VALID,0,
2013-03-03, 08:17:04,VALID,919.012,VALID,0,VALID,95.1097,VALID,180.609,VALID,20.7365,VALID,161,VALID,0,
2013-03-03, 08:18:04,VALID,918.998,VALID,0,VALID,94.8048,VALID,183.08,VALID,20.7365,VALID,162,VALID,0,
2013-03-03, 08:19:04,VALID,919.053,VALID,0,VALID,94.5532,VALID,185.443,VALID,20.7755,VALID,165,VALID,0,
2013-03-03, 08:20:04,VALID,919.063,VALID,0,VALID,94.2102,VALID,187.7,VALID,20.7755,VALID,156,VALID,0,
2013-03-03, 08:21:04,VALID,919.121,VALID,0,VALID,93.9815,VALID,189.849,VALID,20.8145,VALID,131,VALID,0,
2013-03-03, 08:22:04,VALID,919.154,VALID,0,VALID,93.7604,VALID,192.212,VALID,20.8129,VALID,153,VALID,0,
2013-03-03, 08:23:04,VALID,919.182,VALID,0,VALID,93.5774,VALID,194.576,VALID,20.8535,VALID,170,VALID,0,
2013-03-03, 08:24:04,VALID,919.202,VALID,0,VALID,93.0895,VALID,196.832,VALID,20.873,VALID,157,VALID,0,
2013-03-03, 08:25:04,VALID,919.205,VALID,0,VALID,92.7541,VALID,198.766,VALID,20.9316,VALID,147,VALID,0,
2013-03-03, 08:26:04,VALID,919.201,VALID,0,VALID,92.3119,VALID,200.055,VALID,20.9706,VALID,171,VALID,0,
2013-03-03, 08:27:04,VALID,919.2,VALID,0,VALID,92.1823,VALID,201.13,VALID,21.0291,VALID,170,VALID,0,
2013-03-03, 08:28:04,VALID,919.21,VALID,0,VALID,91.8622,VALID,202.312,VALID,21.0681,VALID,170,VALID,0,
2013-03-03, 08:29:04,VALID,919.245,VALID,0,VALID,91.6716,VALID,202.849,VALID,21.1266,VALID,179,VALID,0,
2013-03-03, 08:30:04,VALID,919.223,VALID,0,VALID,91.3514,VALID,204.461,VALID,21.1657,VALID,167,VALID,0,
2013-03-03, 08:31:04,VALID,919.215,VALID,0,VALID,91.2904,VALID,205.535,VALID,21.1266,VALID,170,VALID,0,
2013-03-03, 08:32:04,VALID,919.2,VALID,0,VALID,91.6182,VALID,206.717,VALID,21.1836,VALID,169,VALID,0,
2013-03-03, 08:33:04,VALID,919.233,VALID,0,VALID,91.6792,VALID,208.328,VALID,21.2632,VALID,169,VALID,0,
2013-03-03, 08:34:04,VALID,919.202,VALID,0,VALID,91.2447,VALID,210.8,VALID,21.2616,VALID,157,VALID,0,
2013-03-03, 08:35:04,VALID,919.209,VALID,0,VALID,91.0312,VALID,214.56,VALID,21.2616,VALID,165,VALID,0,
2013-03-03, 08:36:04,VALID,919.211,VALID,0,VALID,90.5281,VALID,217.676,VALID,21.2632,VALID,147,VALID,0,
2013-03-03, 08:37:04,VALID,919.217,VALID,0,VALID,90.4747,VALID,221.221,VALID,21.2226,VALID,183,VALID,0,
2013-03-03, 08:38:04,VALID,919.183,VALID,0,VALID,90.5128,VALID,224.874,VALID,21.3608,VALID,176,VALID,0,
2013-03-03, 08:39:04,VALID,919.204,VALID,0,VALID,90.3985,VALID,229.065,VALID,21.4372,VALID,176,VALID,0,
2013-03-03, 08:40:04,VALID,919.161,VALID,0,VALID,89.5065,VALID,233.577,VALID,21.4957,VALID,174,VALID,0,
2013-03-03, 08:41:04,VALID,919.144,VALID,0,VALID,88.6908,VALID,240.238,VALID,21.5754,VALID,136,VALID,0,
2013-03-03, 08:42:04,VALID,919.158,VALID,0,VALID,88.7137,VALID,246.792,VALID,21.6144,VALID,133,VALID,0,
2013-03-03, 08:43:04,VALID,919.149,VALID,0,VALID,87.776,VALID,252.702,VALID,21.6128,VALID,147,VALID,0,
2013-03-03, 08:44:04,VALID,919.167,VALID,0,VALID,87.7226,VALID,260.008,VALID,21.6729,VALID,153,VALID,0,
2013-03-03, 08:45:04,VALID,919.112,VALID,0,VALID,86.9984,VALID,267.851,VALID,21.7315,VALID,150,VALID,0,
2013-03-03, 08:46:04,VALID,919.13,VALID,0,VALID,87.067,VALID,273.223,VALID,21.79,VALID,123,VALID,0,
2013-03-03, 08:47:04,VALID,919.122,VALID,0,VALID,87.311,VALID,280.314,VALID,21.8274,VALID,180,VALID,0,
2013-03-03, 08:48:04,VALID,919.061,VALID,0,VALID,86.9451,VALID,286.008,VALID,21.8664,VALID,163,VALID,0,
2013-03-03, 08:49:04,VALID,919.059,VALID,0,VALID,86.5639,VALID,291.166,VALID,21.9054,VALID,175,VALID,0,
2013-03-03, 08:50:04,VALID,919.094,VALID,0,VALID,86.6477,VALID,298.257,VALID,22.003,VALID,170,VALID,0,
2013-03-03, 08:51:04,VALID,919.068,VALID,0,VALID,86.5258,VALID,304.811,VALID,22.042,VALID,172,VALID,0,
2013-03-03, 08:52:04,VALID,919.075,VALID,0,VALID,86.2056,VALID,310.397,VALID,22.0615,VALID,168,VALID,0,
2013-03-03, 08:53:04,VALID,919.045,VALID,0,VALID,87.3415,VALID,319.53,VALID,22.0615,VALID,179,VALID,0,
2013-03-03, 08:54:04,VALID,919.077,VALID,0,VALID,87.2424,VALID,322.753,VALID,22.1217,VALID,138,VALID,0,
2013-03-03, 08:55:04,VALID,919.036,VALID,0,VALID,87.1661,VALID,330.382,VALID,22.1998,VALID,131,VALID,0,
2013-03-03, 08:56:04,VALID,919.063,VALID,0,VALID,86.5563,VALID,331.993,VALID,22.2779,VALID,132,VALID,0,
2013-03-03, 08:57:04,VALID,919.061,VALID,0,VALID,85.7177,VALID,337.902,VALID,22.2779,VALID,164,VALID,0,
2013-03-03, 08:58:04,VALID,919.047,VALID,0,VALID,86.1675,VALID,338.44,VALID,22.3364,VALID,156,VALID,0,
2013-03-03, 08:59:04,VALID,919.056,VALID,0,VALID,85.8549,VALID,341.233,VALID,22.3169,VALID,149,VALID,0,
2013-03-03, 09:00:04,VALID,919.062,VALID,0,VALID,85.8702,VALID,348.647,VALID,22.2974,VALID,157,VALID,0,
2013-03-03, 09:01:04,VALID,919.029,VALID,0,VALID,86.2056,VALID,346.283,VALID,22.3169,VALID,158,VALID,0,
2013-03-03, 09:02:04,VALID,919.028,VALID,0,VALID,86.5029,VALID,351.44,VALID,22.395,VALID,160,VALID,0,
2013-03-03, 09:03:04,VALID,919.051,VALID,0,VALID,84.7114,VALID,353.481,VALID,22.5121,VALID,150,VALID,0,
2013-03-03, 09:04:04,VALID,919.076,VALID,0,VALID,83.3087,VALID,359.068,VALID,22.5706,VALID,155,VALID,0,
2013-03-03, 09:05:04,VALID,919.096,VALID,0,VALID,82.836,VALID,368.631,VALID,22.5494,VALID,161,VALID,0,
2013-03-03, 09:06:04,VALID,919.092,VALID,0,VALID,82.7979,VALID,360.143,VALID,22.6665,VALID,174,VALID,0,
2013-03-03, 09:07:04,VALID,919.084,VALID,0,VALID,82.6302,VALID,363.581,VALID,22.7836,VALID,153,VALID,0,
2013-03-03, 09:08:04,VALID,919.049,VALID,0,VALID,82.8284,VALID,371.854,VALID,22.9024,VALID,167,VALID,0,
2013-03-03, 09:09:04,VALID,919.069,VALID,0,VALID,82.9275,VALID,376.044,VALID,23.0178,VALID,153,VALID,0,
2013-03-03, 09:10:04,VALID,919.048,VALID,0,VALID,82.1118,VALID,374.647,VALID,23.1952,VALID,153,VALID,0,
2013-03-03, 09:11:04,VALID,919.036,VALID,0,VALID,82.554,VALID,373.788,VALID,23.2715,VALID,155,VALID,0,
2013-03-03, 09:12:04,VALID,919.044,VALID,0,VALID,81.5553,VALID,389.044,VALID,23.4082,VALID,172,VALID,0,
2013-03-03, 09:13:04,VALID,919.074,VALID,0,VALID,80.3279,VALID,390.011,VALID,23.5253,VALID,198,VALID,0,
2013-03-03, 09:14:04,VALID,919.064,VALID,0,VALID,78.4221,VALID,388.722,VALID,23.5839,VALID,191,VALID,0,
2013-03-03, 09:15:04,VALID,919.073,VALID,0,VALID,78.262,VALID,388.615,VALID,23.5839,VALID,206,VALID,0,
2013-03-03, 09:16:04,VALID,919.09,VALID,0,VALID,79.2607,VALID,394.739,VALID,23.5839,VALID,188,VALID,0,
2013-03-03, 09:17:04,VALID,919.116,VALID,0,VALID,80.0687,VALID,392.483,VALID,23.701,VALID,188,VALID,0,
2013-03-03, 09:18:04,VALID,919.13,VALID,0,VALID,79.6876,VALID,395.706,VALID,23.8572,VALID,170,VALID,0,
2013-03-03, 09:19:04,VALID,919.099,VALID,0,VALID,79.6113,VALID,398.607,VALID,24.0329,VALID,166,VALID,0,
2013-03-03, 09:20:04,VALID,919.114,VALID,0,VALID,77.8579,VALID,406.772,VALID,24.15,VALID,162,VALID,0,
2013-03-03, 09:21:04,VALID,919.136,VALID,0,VALID,78.14,VALID,416.12,VALID,24.2672,VALID,162,VALID,0,
2013-03-03, 09:22:04,VALID,919.141,VALID,0,VALID,77.088,VALID,424.393,VALID,24.4606,VALID,164,VALID,0,
2013-03-03, 09:23:04,VALID,919.154,VALID,0,VALID,76.1503,VALID,419.128,VALID,24.5778,VALID,169,VALID,0,
2013-03-03, 09:24:04,VALID,919.168,VALID,0,VALID,76.1122,VALID,424.607,VALID,24.5778,VALID,171,VALID,0,
2013-03-03, 09:25:04,VALID,919.165,VALID,0,VALID,76.2723,VALID,425.145,VALID,24.3825,VALID,177,VALID,0,
2013-03-03, 09:26:04,VALID,919.171,VALID,0,VALID,77.2557,VALID,433.31,VALID,24.3453,VALID,109,VALID,0,
2013-03-03, 09:27:04,VALID,919.167,VALID,0,VALID,78.2925,VALID,443.839,VALID,24.2263,VALID,114,VALID,0,
2013-03-03, 09:28:04,VALID,919.202,VALID,0,VALID,76.5086,VALID,446.418,VALID,24.0701,VALID,129,VALID,0,
2013-03-03, 09:29:04,VALID,919.215,VALID,0,VALID,76.5238,VALID,453.402,VALID,23.9548,VALID,173,VALID,0,
2013-03-03, 09:30:04,VALID,919.229,VALID,0,VALID,72.2624,VALID,454.369,VALID,23.9139,VALID,133,VALID,0,
2013-03-03, 09:31:04,VALID,919.227,VALID,0,VALID,74.7857,VALID,453.724,VALID,23.9139,VALID,137,VALID,0,
2013-03-03, 09:32:04,VALID,919.242,VALID,0,VALID,75.4947,VALID,452.757,VALID,24.0701,VALID,137,VALID,0,
2013-03-03, 09:33:04,VALID,919.271,VALID,0,VALID,75.4794,VALID,462.534,VALID,24.3239,VALID,137,VALID,0,
2013-03-03, 09:34:04,VALID,919.276,VALID,0,VALID,75.2584,VALID,478.543,VALID,24.5192,VALID,147,VALID,0,
2013-03-03, 09:35:04,VALID,919.295,VALID,0,VALID,72.8112,VALID,493.047,VALID,24.6168,VALID,147,VALID,0,
2013-03-03, 09:36:04,VALID,919.316,VALID,0,VALID,71.7211,VALID,504.329,VALID,24.7535,VALID,147,VALID,0,
2013-03-03, 09:37:04,VALID,919.335,VALID,0,VALID,71.8659,VALID,525.495,VALID,24.8316,VALID,147,VALID,0,
2013-03-03, 09:38:04,VALID,919.351,VALID,0,VALID,72.7121,VALID,537.635,VALID,25.0464,VALID,147,VALID,0,
2013-03-03, 09:39:04,VALID,919.379,VALID,0,VALID,70.5776,VALID,538.28,VALID,25.2027,VALID,65,VALID,0,
2013-03-03, 09:40:04,VALID,919.344,VALID,0,VALID,70.4937,VALID,551.173,VALID,25.1636,VALID,38,VALID,0,
2013-03-03, 09:41:04,VALID,919.337,VALID,0,VALID,69.678,VALID,561.595,VALID,25.1636,VALID,38,VALID,0,
2013-03-03, 09:42:04,VALID,919.37,VALID,0,VALID,69.7543,VALID,575.992,VALID,25.1812,VALID,32,VALID,0,
2013-03-03, 09:43:04,VALID,919.354,VALID,0,VALID,70.6691,VALID,588.563,VALID,25.2417,VALID,34,VALID,0,
2013-03-03, 09:44:04,VALID,919.334,VALID,0,VALID,72.2929,VALID,594.15,VALID,25.2612,VALID,44,VALID,0,